GW1795 Weather Reports


time (UTC)temp
C
wind
direction
speed
KPH
gust
KPH
rain 1hr
cm
rain 24hr
cm
rain mn
cm
humidity
%
barometer
mb
20260503050508 1 135 3.2 4.8 0.00 0.00 0.00 87 1014.4
20260503050006 1 135 3.2 3.2 0.00 0.00 0.00 87 1014.6
20260503045503 1 144 3.2 3.2 0.00 0.00 0.00 86 1014.3
20260503045000 1 135 4.8 4.8 0.00 0.00 0.00 86 1014.4
20260503044456 2 144 3.2 4.8 0.00 0.00 0.00 85 1014.4
20260503043954 2 128 3.2 3.2 0.00 0.00 0.00 84 1014.4
20260503043450 2 147 3.2 3.2 0.00 0.00 0.00 84 1014.3
20260503042947 2 151 3.2 4.8 0.00 0.00 0.00 84 1014.2
20260503042443 2 141 3.2 3.2 0.00 0.00 0.00 83 1014.4
20260503041940 2 122 3.2 4.8 0.00 0.00 0.00 83 1014.3
20260503041437 2 150 3.2 4.8 0.00 0.00 0.00 83 1014.3
20260503040934 2 137 3.2 4.8 0.00 0.00 0.00 81 1014.3
20260503040431 3 128 3.2 4.8 0.00 0.00 0.00 81 1014.4
20260503035929 3 146 3.2 4.8 0.00 0.00 0.00 81 1014.5
20260503035425 3 143 3.2 4.8 0.00 0.00 0.00 80 1014.3
20260503034923 3 148 3.2 4.8 0.00 0.00 0.00 81 1014.4
20260503034421 3 140 4.8 4.8 0.00 0.00 0.00 80 1014.5
20260503033917 3 133 3.2 4.8 0.00 0.00 0.00 80 1014.5
20260503033415 3 144 3.2 4.8 0.00 0.00 0.00 80 1014.4
20260503032913 3 142 3.2 4.8 0.00 0.00 0.00 82 1014.5
20260503032411 3 136 3.2 4.8 0.00 0.00 0.00 84 1014.5
20260503031908 3 127 3.2 3.2 0.00 0.00 0.00 85 1014.5
20260503031406 2 142 3.2 4.8 0.00 0.00 0.00 84 1014.6
20260503030902 2 128 3.2 4.8 0.00 0.00 0.00 83 1014.6
20260503030359 2 143 3.2 4.8 0.00 0.00 0.00 83 1014.6
20260503025855 3 136 3.2 4.8 0.00 0.00 0.00 84 1014.6
20260503025353 2 128 3.2 3.2 0.00 0.00 0.00 83 1014.7
20260503024850 2 127 3.2 4.8 0.00 0.00 0.00 80 1014.7
20260503024346 2 134 4.8 4.8 0.00 0.00 0.00 79 1014.6
20260503023843 2 136 3.2 4.8 0.00 0.00 0.00 78 1014.7
20260503023341 3 138 3.2 4.8 0.00 0.00 0.00 78 1014.8
20260503022838 2 150 3.2 3.2 0.00 0.00 0.00 80 1014.8
20260503022337 2 138 3.2 3.2 0.00 0.00 0.00 80 1014.8
20260503021834 2 131 3.2 4.8 0.00 0.00 0.00 79 1014.9
20260503021330 2 139 3.2 3.2 0.00 0.00 0.00 76 1014.9
20260503020828 2 133 3.2 4.8 0.00 0.00 0.00 74 1014.9
20260503020326 3 131 3.2 4.8 0.00 0.00 0.00 73 1014.6
20260503015822 3 130 3.2 3.2 0.00 0.00 0.00 73 1014.6
20260503015319 3 126 1.6 3.2 0.00 0.00 0.00 72 1014.7
20260503014815 3 130 3.2 4.8 0.00 0.00 0.00 69 1014.6
20260503014313 4 129 3.2 3.2 0.00 0.00 0.00 69 1014.4
20260503013810 4 119 3.2 4.8 0.00 0.00 0.00 67 1014.5
20260503013307 5 132 3.2 4.8 0.00 0.00 0.00 66 1014.6
20260503012804 5 114 3.2 4.8 0.00 0.00 0.00 64 1014.4
20260503012301 5 140 3.2 3.2 0.00 0.00 0.00 62 1014.5
20260503011758 5 88 3.2 4.8 0.00 0.00 0.00 64 1014.5
20260503011255 5 123 3.2 4.8 0.00 0.00 0.00 62 1014.4
20260503010751 6 147 3.2 4.8 0.00 0.00 0.00 61 1014.4
20260503010249 6 136 3.2 4.8 0.00 0.00 0.00 59 1014.3
20260503005746 6 129 3.2 4.8 0.00 0.00 0.00 57 1014.5
20260503005243 6 28 0.0 3.2 0.00 0.00 0.00 54 1014.2
20260503004739 6 112 0.0 3.2 0.00 0.00 0.00 54 1014.4
20260503004237 6 141 3.2 4.8 0.00 0.00 0.00 55 1014.3
20260503003734 6 87 3.2 3.2 0.00 0.00 0.00 54 1014.4
20260503003231 6 149 3.2 4.8 0.00 0.00 0.00 56 1014.3
20260503002728 6 158 1.6 6.4 0.00 0.00 0.00 54 1014.2
20260503002225 6 97 1.6 4.8 0.00 0.00 0.00 58 1014.1
20260503001720 6 125 3.2 4.8 0.00 0.00 0.00 59 1014.0
20260503001217 6 129 3.2 4.8 0.00 0.00 0.00 60 1014.1
20260503000715 6 111 3.2 4.8 0.00 0.00 0.00 59 1014.1
20260503000212 6 134 4.8 4.8 0.00 0.00 0.00 59 1014.2
20260502235709 6 144 3.2 4.8 0.00 0.00 0.00 59 1014.1
20260502235207 6 117 1.6 4.8 0.00 0.00 0.00 59 1014.1
20260502234703 6 119 3.2 3.2 0.00 0.00 0.00 59 1013.9
20260502234200 6 104 3.2 6.4 0.00 0.00 0.00 58 1014.1
20260502233656 6 107 3.2 4.8 0.00 0.00 0.00 59 1014.0
20260502233153 7 113 3.2 6.4 0.00 0.00 0.00 59 1014.0
20260502232649 7 120 3.2 3.2 0.00 0.00 0.00 58 1013.8
20260502232147 7 102 3.2 4.8 0.00 0.00 0.00 58 1014.0
20260502231643 7 86 4.8 6.4 0.00 0.00 0.00 56 1014.3
20260502231141 7 123 3.2 8.0 0.00 0.00 0.00 56 1014.0
20260502230639 7 128 4.8 6.4 0.00 0.00 0.00 57 1014.1
20260502230137 7 109 3.2 4.8 0.00 0.00 0.00 55 1014.0
20260502225632 7 100 3.2 3.2 0.00 0.00 0.00 53 1014.0
20260502225131 7 62 3.2 6.4 0.00 0.00 0.00 52 1014.0
20260502224626 7 352 3.2 9.7 0.00 0.00 0.00 47 1014.0
20260502224123 7 342 3.2 6.4 0.00 0.00 0.00 48 1013.9
20260502223621 7 60 1.6 9.7 0.00 0.00 0.00 46 1013.9
20260502223119 7 354 6.4 8.0 0.00 0.00 0.00 44 1013.9
20260502222616 7 53 3.2 4.8 0.00 0.00 0.00 45 1013.8
20260502222112 7 289 3.2 6.4 0.00 0.00 0.00 46 1013.9
20260502221608 7 73 0.0 16.1 0.00 0.00 0.00 45 1013.9
20260502221106 8 8 3.2 8.0 0.00 0.00 0.00 48 1013.9
20260502220601 7 62 1.6 3.2 0.00 0.00 0.00 52 1013.9
20260502220058 7 82 4.8 9.7 0.00 0.00 0.00 50 1013.8
20260502215555 7 81 0.0 11.3 0.00 0.00 0.00 50 1013.7
20260502215052 7 40 3.2 6.4 0.00 0.00 0.00 50 1013.7
20260502214549 7 120 3.2 6.4 0.00 0.00 0.00 53 1013.9
20260502214047 7 26 0.0 3.2 0.00 0.00 0.00 50 1013.7
20260502213543 7 195 0.0 4.8 0.00 0.00 0.00 50 1013.8
20260502213041 7 62 3.2 8.0 0.00 0.00 0.00 49 1013.8
20260502212540 7 284 0.0 3.2 0.00 0.00 0.00 50 1013.7
20260502212037 7 121 0.0 14.5 0.00 0.00 0.00 49 1013.5
20260502211532 7 77 3.2 9.7 0.00 0.00 0.00 50 1013.7
20260502211030 7 112 3.2 6.4 0.00 0.00 0.00 51 1013.7
20260502210526 7 295 1.6 8.0 0.00 0.00 0.00 50 1013.8
20260502210024 7 91 8.0 12.9 0.00 0.00 0.00 52 1013.7
20260502205520 8 347 3.2 9.7 0.00 0.00 0.00 47 1013.7
20260502205017 8 70 8.0 9.7 0.00 0.00 0.00 50 1013.7
20260502204514 8 18 4.8 8.0 0.00 0.00 0.00 47 1013.5
20260502204012 8 56 6.4 6.4 0.00 0.00 0.00 50 1013.6
20260502203509 8 318 3.2 17.7 0.00 0.00 0.00 45 1013.8
20260502203006 8 356 6.4 20.9 0.00 0.00 0.00 42 1013.6
20260502202502 9 170 3.2 8.0 0.00 0.00 0.00 44 1013.6
20260502202000 8 250 3.2 6.4 0.00 0.00 0.00 46 1013.6
20260502201456 8 132 3.2 6.4 0.00 0.00 0.00 43 1013.7
20260502200953 8 290 3.2 6.4 0.00 0.00 0.00 43 1013.7
20260502200448 8 349 4.8 9.7 0.00 0.00 0.00 43 1013.6
20260502195946 8 355 6.4 16.1 0.00 0.00 0.00 48 1013.9
20260502195444 8 1 6.4 6.4 0.00 0.00 0.00 47 1013.9
20260502194940 8 318 11.3 14.5 0.00 0.00 0.00 45 1014.0
20260502194437 8 351 3.2 12.9 0.00 0.00 0.00 47 1014.0
20260502193932 8 299 4.8 9.7 0.00 0.00 0.00 45 1013.8
20260502193430 8 5 6.4 6.4 0.00 0.00 0.00 44 1014.1
20260502192925 8 335 4.8 16.1 0.00 0.00 0.00 45 1013.9
20260502192422 8 36 4.8 6.4 0.00 0.00 0.00 45 1013.9
20260502191919 8 22 3.2 9.7 0.00 0.00 0.00 46 1014.0
20260502191417 8 95 3.2 6.4 0.00 0.00 0.00 51 1014.1
20260502190914 7 9 6.4 12.9 0.00 0.00 0.00 45 1014.2
20260502190412 8 28 6.4 16.1 0.00 0.00 0.00 45 1014.1
20260502185908 8 352 9.7 17.7 0.00 0.00 0.00 46 1014.1
20260502185403 8 353 6.4 14.5 0.00 0.00 0.00 47 1014.1
20260502184900 8 230 0.0 14.5 0.00 0.00 0.00 47 1014.2
20260502184355 8 192 4.8 8.0 0.00 0.00 0.00 46 1014.1
20260502183853 8 11 4.8 16.1 0.00 0.00 0.00 44 1014.1
20260502183349 8 0 6.4 20.9 0.00 0.00 0.00 44 1014.3
20260502182844 8 13 4.8 9.7 0.00 0.00 0.00 47 1014.4
20260502182340 8 345 12.9 12.9 0.00 0.00 0.00 44 1014.2
20260502181836 8 269 3.2 14.5 0.00 0.00 0.00 48 1014.2
20260502181335 8 3 3.2 12.9 0.00 0.00 0.00 49 1014.2
20260502180833 8 23 3.2 19.3 0.00 0.00 0.00 47 1014.3
20260502180330 8 25 6.4 16.1 0.00 0.00 0.00 47 1014.3
20260502170249 7 353 8.0 9.7 0.00 0.00 0.00 50 1014.5
20260502164236 7 82 3.2 16.1 0.00 0.00 0.00 50 1014.6
20260502163731 7 234 4.8 6.4 0.00 0.00 0.00 54 1014.6
20260502163228 7 358 8.0 14.5 0.00 0.00 0.00 52 1014.7
20260502162725 7 338 8.0 9.7 0.00 0.00 0.00 54 1014.6
20260502162222 7 112 4.8 9.7 0.00 0.00 0.00 52 1014.8
20260502161719 8 91 3.2 16.1 0.00 0.00 0.00 51 1014.7
20260502161215 7 45 6.4 8.0 0.00 0.00 0.00 55 1014.6
20260502160714 7 77 3.2 12.9 0.00 0.00 0.00 51 1014.7
20260502160213 7 328 4.8 12.9 0.00 0.00 0.00 55 1014.6
20260502152132 7 331 11.3 16.1 0.00 0.00 0.00 54 1014.6
20260502151629 8 58 8.0 16.1 0.00 0.00 0.00 54 1014.5
20260502151126 7 77 9.7 17.7 0.00 0.00 0.00 59 1014.8
20260502150624 7 119 6.4 19.3 0.00 0.00 0.00 62 1014.7
20260502150120 7 331 16.1 17.7 0.00 0.00 0.00 60 1014.6
20260502130508 5 45 3.2 9.7 0.00 0.00 0.00 69 1014.3
20260502123451 3 13 3.2 6.4 0.00 0.00 0.00 71 1014.2
20260502122948 3 345 9.7 12.9 0.00 0.00 0.00 70 1014.3
20260502122444 3 29 3.2 6.4 0.00 0.00 0.00 70 1014.2
20260502121943 3 352 4.8 9.7 0.00 0.00 0.00 72 1014.0
20260502121439 3 151 4.8 8.0 0.00 0.00 0.00 72 1014.1
20260502120937 3 117 1.6 14.5 0.00 0.00 0.00 72 1014.1
20260502120433 3 334 6.4 9.7 0.00 0.00 0.00 72 1013.9
20260502115930 2 64 4.8 9.7 0.00 0.00 0.00 73 1013.8
20260502115427 2 16 3.2 6.4 0.00 0.00 0.00 74 1013.8
20260502114923 2 19 1.6 3.2 0.00 0.00 0.00 75 1013.7
20260502114420 2 331 0.0 4.8 0.00 0.00 0.00 75 1013.7
20260502113917 2 105 0.0 3.2 0.00 0.00 0.00 77 1013.7
20260502113415 2 9 0.0 4.8 0.00 0.00 0.00 79 1013.8
20260502112914 1 340 1.6 3.2 0.00 0.00 0.00 81 1013.7
20260502112411 1 151 1.6 4.8 0.00 0.00 0.00 82 1013.8
20260502111908 1 36 1.6 4.8 0.00 0.00 0.00 83 1013.6
20260502111405 1 30 3.2 3.2 0.00 0.00 0.00 84 1013.6
20260502110902 1 57 0.0 3.2 0.00 0.00 0.00 86 1013.6
20260502110400 0 75 1.6 3.2 0.00 0.00 0.00 87 1013.6
20260502105857 0 61 3.2 3.2 0.00 0.08 0.08 88 1013.6
20260502105354 0 89 0.0 3.2 0.00 0.08 0.08 88 1013.5
20260502104852 0 117 3.2 4.8 0.00 0.08 0.08 88 1013.7
20260502104349 0 139 3.2 3.2 0.00 0.08 0.08 89 1013.6
20260502103846 0 132 3.2 3.2 0.00 0.08 0.08 87 1013.4
20260502103344 0 132 4.8 4.8 0.00 0.08 0.08 87 1013.5
20260502102841 0 127 4.8 4.8 0.00 0.08 0.08 86 1013.7
20260502102337 0 126 3.2 3.2 0.00 0.08 0.08 86 1013.7
20260502101835 0 105 3.2 3.2 0.00 0.08 0.08 86 1013.5
20260502101333 1 138 0.0 3.2 0.00 0.08 0.08 87 1013.5
20260502100831 0 106 0.0 3.2 0.00 0.08 0.08 87 1013.5
20260502100330 0 265 1.6 3.2 0.00 0.08 0.08 88 1013.4
20260502091304 0 127 3.2 4.8 0.00 0.08 0.08 95 1013.5
20260502090801 0 106 1.6 3.2 0.00 0.08 0.08 95 1013.5
20260502090258 0 130 4.8 4.8 0.00 0.08 0.08 96 1013.5
20260502071159 0 122 3.2 3.2 0.00 0.08 0.08 97 1013.2
20260502070657 0 125 3.2 4.8 0.00 0.08 0.08 97 1013.5
20260502070154 1 134 3.2 4.8 0.00 0.08 0.08 97 1013.4
20260502065653 1 121 3.2 3.2 0.00 0.08 0.08 97 1013.5
20260502065150 1 128 3.2 3.2 0.00 0.08 0.08 97 1013.4
20260502064649 1 127 3.2 4.8 0.00 0.08 0.08 97 1013.7
20260502064145 1 107 1.6 4.8 0.00 0.08 0.08 97 1013.6
20260502063643 1 132 3.2 3.2 0.00 0.08 0.08 97 1013.5
20260502063141 1 117 3.2 3.2 0.00 0.08 0.08 97 1013.6
20260502062637 1 140 3.2 4.8 0.00 0.08 0.08 97 1013.9
20260502062135 1 140 3.2 4.8 0.00 0.08 0.08 97 1013.6
20260502061633 1 144 3.2 4.8 0.00 0.08 0.08 97 1013.5
20260502061131 1 129 3.2 3.2 0.00 0.08 0.08 97 1013.5
20260502060630 1 135 3.2 4.8 0.00 0.08 0.08 97 1013.6
20260502060127 1 143 3.2 4.8 0.00 0.08 0.08 97 1013.8
20260502055625 1 127 3.2 4.8 0.00 0.08 0.08 97 1013.7
20260502055123 1 122 4.8 4.8 0.00 0.08 0.08 97 1013.7
20260502054622 2 133 4.8 4.8 0.00 0.08 0.08 97 1013.8
20260502054118 2 137 3.2 4.8 0.00 0.08 0.08 97 1013.8
20260502053615 2 141 3.2 4.8 0.00 0.08 0.08 97 1013.8
20260502053113 2 136 3.2 4.8 0.00 0.08 0.08 97 1013.9
20260502052611 2 128 3.2 4.8 0.00 0.08 0.08 97 1013.9
20260502052109 2 137 3.2 4.8 0.00 0.08 0.08 97 1013.8
20260502051607 2 114 1.6 3.2 0.00 0.08 0.08 97 1013.9
20260502051105 2 115 3.2 4.8 0.00 0.08 0.08 97 1013.8